DW6747 Weather Reports


time (UTC)temp
F
wind
direction
speed
knots
gust
knots
rain 1hr
in
rain 24hr
in
rain mn
in
humidity
%
barometer
mb
20260504100138 45 0 0.0 0.0 0.00 0.00 0.00 81 1016.2
20260504080740 44 0 0.0 0.0 0.00 0.00 0.00 82 1016.6
20260504050711 41 0 0.0 0.0 0.00 0.00 0.00 79 1016.8
20260504044603 41 0 0.0 0.0 0.00 0.00 0.00 80 1016.6
20260504042516 41 0 0.0 0.0 0.00 0.00 0.00 78 1016.6
20260504041506 41 0 0.0 0.0 0.00 0.00 0.00 78 1016.7
20260504040451 41 0 0.0 0.0 0.00 0.00 0.00 76 1016.7
20260504035444 41 0 0.0 0.0 0.00 0.00 0.00 77 1016.6
20260504034433 42 0 0.0 0.0 0.00 0.00 0.00 76 1016.6
20260504033400 42 0 0.0 0.0 0.00 0.00 0.00 75 1016.4
20260504032337 42 0 0.0 0.0 0.00 0.00 0.00 74 1016.3
20260504031326 43 0 0.0 0.0 0.00 0.00 0.00 71 1016.2
20260504030342 43 0 0.0 0.0 0.00 0.00 0.00 71 1016.1
20260504025308 43 0 0.0 0.0 0.00 0.00 0.00 72 1016.0
20260504024244 44 0 0.0 0.0 0.00 0.00 0.00 70 1016.1
20260504023237 44 0 0.0 0.0 0.00 0.00 0.00 68 1015.9
20260504022215 45 0 0.0 0.0 0.00 0.00 0.00 68 1016.0
20260504020054 46 0 0.0 0.0 0.00 0.00 0.00 65 1015.9
20260504013906 47 0 0.0 0.0 0.00 0.00 0.00 60 1015.8
20260504012854 47 0 0.0 0.0 0.00 0.00 0.00 57 1015.8
20260504010712 48 0 0.0 0.0 0.00 0.00 0.00 58 1015.6
20260504005725 49 0 0.0 0.0 0.00 0.00 0.00 53 1015.6
20260504004704 50 0 0.0 0.0 0.00 0.00 0.00 52 1015.4
20260504002558 52 0 0.0 0.0 0.00 0.00 0.00 52 1015.3
20260504001548 53 0 0.0 0.0 0.00 0.00 0.00 47 1015.1
20260504000608 54 0 0.0 0.0 0.00 0.00 0.00 44 1015.0
20260503235631 54 0 0.0 0.0 0.00 0.00 0.00 40 1015.0
20260503234608 55 0 0.0 0.0 0.00 0.00 0.00 42 1015.0
20260503233559 56 0 0.0 0.9 0.00 0.00 0.00 34 1014.8
20260503232536 58 74 0.0 0.0 0.00 0.00 0.00 37 1014.8
20260503230350 59 38 0.0 1.7 0.00 0.00 0.00 32 1014.6
20260503225354 59 331 0.0 1.7 0.00 0.00 0.00 29 1014.7
20260503224348 59 52 0.0 2.6 0.00 0.00 0.00 29 1014.8
20260503223359 60 272 0.0 0.9 0.00 0.00 0.00 28 1014.9
20260503222359 60 141 0.0 4.3 0.00 0.00 0.00 29 1014.8
20260503221334 60 271 0.0 4.3 0.00 0.00 0.00 29 1014.6
20260503215202 60 121 0.0 2.6 0.00 0.00 0.00 33 1014.9
20260503213016 60 113 0.0 8.7 0.00 0.00 0.00 29 1014.8
20260503212011 60 240 0.0 6.1 0.00 0.00 0.00 28 1014.6
20260503210950 60 284 0.0 5.2 0.00 0.00 0.00 30 1014.8
20260503205920 60 229 0.9 5.2 0.00 0.00 0.00 29 1014.8
20260503204859 61 122 0.0 7.8 0.00 0.00 0.00 31 1014.9
20260503202716 61 222 0.0 6.1 0.00 0.00 0.00 29 1014.9
20260503201728 60 90 0.9 6.1 0.00 0.00 0.00 29 1015.2
20260503200724 60 31 0.9 5.2 0.00 0.00 0.00 32 1015.1
20260503195657 60 115 0.9 5.2 0.00 0.00 0.00 31 1015.3
20260503194717 60 21 0.9 5.2 0.00 0.00 0.00 34 1015.5
20260503192619 59 126 0.0 5.2 0.00 0.00 0.00 32 1015.8
20260503191636 59 323 0.9 3.5 0.00 0.00 0.00 31 1015.9
20260503190604 59 323 0.9 6.1 0.00 0.00 0.00 35 1016.0
20260503185624 59 125 0.9 6.1 0.00 0.00 0.00 31 1016.0
20260503184552 59 19 0.9 7.0 0.00 0.00 0.00 36 1016.2
20260503183551 58 96 0.9 7.0 0.00 0.00 0.00 32 1016.5
20260503181437 57 268 0.9 7.8 0.00 0.00 0.00 35 1016.4
20260503180457 56 38 0.9 7.8 0.00 0.00 0.00 37 1016.6
20260503175450 56 37 0.9 6.1 0.00 0.00 0.00 35 1016.7
20260503173339 55 355 0.0 5.2 0.00 0.00 0.00 39 1017.0
20260503172325 55 71 0.9 5.2 0.00 0.00 0.00 36 1017.0
20260503171255 53 320 0.9 3.5 0.00 0.00 0.00 39 1017.0
20260503170245 54 308 0.0 7.0 0.00 0.00 0.00 36 1017.1
20260503160205 52 38 0.9 5.2 0.00 0.00 0.00 39 1017.6
20260503150127 50 339 0.9 5.2 0.00 0.00 0.00 41 1017.7
20260503130918 46 0 0.9 4.3 0.00 0.00 0.00 51 1018.1
20260503110647 40 0 0.0 0.9 0.00 0.00 0.00 68 1017.1